SCP
0 0 0 0 0 0 0 0 0 0 0 0 0 0 0 0 0 0 0 0 0 0 0 0 0 0 0 0 0 0 0 0 0 0 0 0 0 0 0 0 0 0 0 0
0 0 0 0 0 0 0 0 0 0 0 0 0 0 0 0 0 0 0 0 0 0 0 0 0 0 0 0 0 0 0 0 0 0 0 0 0 0 0 0 0 0 0 0
0 0 0 0 0 0 0 0 0 0 0 0 0 0 0 0 0 0 0 0 0 0 0 0 0 0 0 0 0 0 0 0 0 0 0 0 0 0 0 0 0 0 0 0
0 0 0 0 0 0 0 0 0 0 0 0 0 0 0 0 0 0 0 0 0 0 0 0 0 0 0 0 0 0 0 0 0 0 0 0 0 0 0 0 0 0 0 0
0 0 0 0 0 0 0 0 0 0 0 0 0 0 0 0 0 0 0 0 0 0 0 0 0 0 0 0 0 0 0 0 0 0 0 0 0 0 0 0 0 0 0 0
0 0 0 0 0 0 0 0 0 0 0 0 0 0 0 0 0 0 0 0 0 0 0 0 0 0 0 0 0 0 0 0 0 0 0 0 0 0 0 0 0 0 0 0
0 0 0 0 0 0 0 0 0 0 0 0 0 0 0 0 0 0 0 0 0 0 0 0 0 0 0 0 0 0 0 0 0 0 0 0 0 0 0 0 0 0 0 0
0 0 0 0 0 0 0 0 0 0 0 0 0 0 0 0 0 0 0 0 0 0 0 0 0 0 0 0 0 0 0 0 0 0 0 0 0 0 0 0 0 0 0 0
0 0 0 0 0 0 0 0 0 0 0 0 0 0 0 0 0 0 0 0 0 0 0 0 0 0 0 0 0 0 0 0 0 0 0 0 0 0 0 0 0 0 0 0
0 0 0 0 0 0 0 0 0 0 0 0 0 0 0 0 0 0 0 0 0 0 0 0 0 0 0 0 0 0 0 0 0 0 0 0 0 0 0 0 0 0 0 0
0 0 0 0 0 0 0 0 0 0 0 0 0 0 0 0 0 0 0 0 0 0 0 0 0 0 0 0 0 0 0 0 0 0 0 0 0 0 0 0 0 0 0 0
0 0 0 0 0 0 0 0 0 0 0 0 0 0 0 0 0 0 0 0 0 0 0 0 0 0 0 0 0 0 0 0 0 0 0 0 0 0 0 0 0 0 0 0
0 0 0 0 0 0 0 0 0 0 0 0 0 0 0 0 0 0 0 0 0 0 0 0 0 0 0 0 0 0 0 0 0 0 0 0 0 0 0 0 0 0 0 0
0 0 0 0 0 0 0 0 0 0 0 0 0 0 0 0 0 0 0 0 0 0 0 0 0 0 0 0 0 0 0 0 0 0 0 0 0 0 0 0 0 0 0 0
0 0 0 0 0 0 0 0 0 0 0 0 0 0 0 0 0 0 0 0 0 0 0 0 0 0 0 0 0 0 0 0 0 0 0 0 0 0 0 0 0 0 0 0
0 0 0 0 0 0 0 0 0 0 0 0 0 0 0 0 0 0 0 0 0 0 0 0 0 0 0 0 0 0 0 0 0 0 0 0 0 0 0 0 0 0 0 0
0 0 0 0 0 0 0 0 0 0 0 0 0 0 0 0 0 0 0 0 0 0 0 0 0 0 0 0 0 0 0 0 0 0 0 0 0 0 0 0 0 0 0 0
0 0 0 0 0 0 0 0 0 0 0 0 0 0 0 0 0 0 0 0 0 0 0 0 0 0 0 0 0 0 0 0 0 0 0 0 0 0 0 0 0 0 0 0
0 0 0 0 0 0 0 0 0 0 0 0 0 0 0 0 0 0 0 0 0 0 0 0 0 0 0 0 0 0 0 0 0 0 0 0 0 0 0 0 0 0 0 0
0 0 0 0 0 0 0 0 0 0 0 0 0 0 0 0 0 0 0 0 0 0 0 0 0 0 0 0 0 0 0 0 0 0 0 0 0 0 0 0 0 0 0 0
0 0 0 0 0 0 0 0 0 0 0 0 0 0 0 0 0 0 0 0 0 0 0 0 0 0 0 0 0 0 0 0 0 0 0 0 0 0 0 0 0 0 0 0
0 0 0 0 0 0 0 0 0 0 0 0 0 0 0 0 0 0 0 0 0 0 0 0 0 0 0 0 0 0 0 0 0 0 0 0 0 0 0 0 0 0 0 0
0 0 0 0 0 0 0 0 0 0 0 0 0 0 0 0 0 0 0 0 0 0 0 0 0 0 0 0 0 0 0 0 0 0 0 0 0 0 0 0 0 0 0 0
0 0 0 0 0 0 0 0 0 0 0 0 0 0 0 0 0 0 0 0 0 0 0 0 0 0 0 0 0 0 0 0 0 0 0 0 0 0 0 0 0 0 0 0
0 0 0 0 0 0 0 0 0 0 0 0 0 0 0 0 0 0 0 0 0 0 0 0 0 0 0 0 0 0 0 0 0 0 0 0 0 0 0 0 0 0 0 0
0 0 0 0 0 0 0 0 0 0 0 0 0 0 0 0 0 0 0 0 0 0 0 0 0 0 0 0 0 0 0 0 0 0 0 0 0 0 0 0 0 0 0 0
0 0 0 0 0 0 0 0 0 0 0 0 0 0 0 0 0 0 0 0 0 0 0 0 0 0 0 0 0 0 0 0 0 0 0 0 0 0 0 0 0 0 0 0
Wind_Speed
4 4 5 4 6 8 6 8 9 9 8 8 7 6 5 4 4 4 4 5 5 5 5 5 6 6 6 6 6 7 8 9 9 8 8 8 8 8 8 9 10 9 9 9
1 2 4 3 4 7 5 5 4 4 5 5 2 2 3 3 5 5 4 4 4 5 5 6 7 7 6 6 7 7 8 9 8 7 8 8 8 8 8 8 8 9 10 10
2 1 3 1 4 5 4 4 7 8 7 3 3 4 4 4 4 5 4 4 4 4 5 6 7 7 8 7 6 7 8 8 8 8 9 9 9 8 9 9 8 9 9 9
3 3 4 6 2 3 5 1 2 3 3 5 5 3 2 3 4 3 3 3 4 3 3 4 4 5 6 6 7 7 8 8 8 8 9 8 8 9 9 8 8 9 9 9
4 3 1 3 1 3 4 0 0 4 4 4 5 4 2 1 2 2 2 2 2 3 3 3 4 5 6 6 7 8 9 9 9 9 9 8 9 9 8 7 8 8 8 9
4 4 5 5 2 1 4 0 1 4 6 5 4 3 2 1 2 2 2 1 0 0 1 2 3 5 6 7 8 9 10 9 9 9 9 9 9 8 6 6 8 8 7 8
4 3 4 3 3 1 4 6 2 4 5 5 3 3 2 2 2 2 2 2 2 1 0 1 2 4 6 6 8 8 7 7 8 8 8 8 7 6 6 6 6 7 7 6
4 3 4 3 2 3 3 1 3 4 4 5 5 4 4 3 3 4 4 3 3 2 1 1 1 3 4 5 4 4 5 6 7 7 7 6 6 6 6 7 6 6 5 4
4 4 2 2 1 1 1 3 2 3 5 7 6 4 4 4 4 4 4 3 3 2 2 2 1 2 3 2 2 4 5 6 6 6 5 5 6 6 5 5 5 5 4 4
1 1 1 2 3 3 4 4 4 5 6 6 6 5 5 4 4 5 4 4 3 3 3 3 3 1 0 1 2 4 6 5 5 6 5 4 4 4 4 4 5 4 4 4
1 1 2 4 4 4 6 7 7 6 6 6 8 7 5 5 4 4 4 4 4 3 3 3 3 3 2 1 3 4 5 5 5 5 6 5 4 3 3 2 3 5 4 4
2 2 2 1 2 4 6 6 6 7 7 7 7 7 6 6 4 4 5 4 4 5 4 4 4 4 4 2 3 5 5 5 5 5 5 5 6 6 9 7 7 6 5 6
0 2 3 4 4 4 5 6 6 7 7 7 7 7 7 6 5 6 6 6 6 6 5 5 5 5 5 3 3 4 5 5 5 5 5 5 5 6 6 7 10 10 8 7
3 4 5 4 4 4 5 6 7 8 8 7 7 7 8 7 7 8 7 6 6 6 6 6 6 5 4 3 5 5 5 6 6 5 5 5 5 5 5 6 5 5 7 8
4 4 4 4 5 6 6 8 9 9 9 8 8 8 8 8 8 7 6 6 7 8 7 7 7 6 5 4 5 6 5 4 5 5 5 6 6 6 6 7 6 6 5 6
4 6 6 7 7 7 8 9 9 9 8 8 8 8 8 8 8 8 8 8 8 8 7 7 7 6 5 5 7 6 6 9 7 6 6 6 6 7 6 6 6 5 5 4
6 5 6 6 7 7 7 8 8 8 8 8 8 7 8 9 9 9 9 8 8 7 7 7 7 6 7 6 7 6 6 7 10 7 6 6 6 7 7 7 6 6 5 5
5 5 6 6 7 7 8 8 8 8 7 7 7 8 9 9 8 7 7 7 9 10 10 8 8 8 8 8 7 6 6 6 6 7 7 7 7 6 7 7 7 7 6 6
8 8 8 8 7 7 8 8 8 7 7 7 8 9 8 8 7 7 7 9 10 9 8 8 10 10 10 10 9 7 8 8 8 7 7 9 8 7 7 7 7 7 6 6
9 9 9 9 8 8 8 8 8 8 7 8 9 9 8 7 6 7 9 9 7 5 5 7 9 9 9 9 10 7 8 9 9 8 8 7 7 7 7 7 7 6 6 5
8 9 9 9 9 9 8 8 9 9 8 8 8 8 8 7 7 7 8 8 7 7 7 10 8 7 7 8 10 8 9 8 8 7 7 7 7 7 7 7 6 6 5 5
8 8 9 9 10 9 7 7 8 9 8 8 8 8 8 8 8 8 8 6 6 8 7 7 7 9 10 10 8 9 9 9 8 7 7 7 7 7 6 6 5 5 5 4
8 8 9 9 9 9 9 8 8 8 8 8 7 7 7 6 5 6 6 4 5 9 8 8 10 13 13 9 8 9 9 9 8 8 7 7 6 6 6 6 5 5 5 4
9 9 8 8 9 10 9 8 7 7 7 7 6 6 6 6 6 5 5 7 10 10 8 9 13 13 11 8 8 8 8 8 7 7 7 6 6 6 5 5 5 5 5 6
8 9 9 10 9 7 7 7 8 8 8 7 7 7 6 5 5 4 6 8 9 9 8 10 13 12 9 8 8 8 7 7 7 6 6 6 6 6 5 5 5 5 5 4
8 7 7 7 6 5 5 6 6 5 6 7 6 6 6 6 7 6 6 8 10 10 8 7 8 8 7 7 8 7 7 7 7 7 6 6 6 6 5 5 6 5 4 4
8 7 7 7 6 5 6 6 6 6 6 6 6 5 6 6 7 7 8 7 7 7 7 7 7 7 7 7 7 6 6 6 6 6 5 5 5 5 5 5 4 4 4 4
Wind_Direction
211 197 168 166 170 166 162 172 172 207 209 227 214 206 197 173 155 144 149 158 168 172 178 182 185 189 188 189 186 184 185 191 197 195 191 189 192 195 194 192 194 191 188 190
266 188 161 151 183 175 172 168 175 167 227 239 189 146 155 158 154 160 168 177 184 182 182 192 195 193 192 194 189 181 188 195 192 187 188 192 195 194 194 196 194 189 191 192
201 209 100 216 219 181 172 180 167 189 214 168 157 171 180 179 172 177 181 184 191 200 201 203 201 196 196 198 189 187 193 194 191 188 192 195 195 191 196 197 192 192 195 195
133 108 176 238 252 159 142 164 195 178 163 162 168 151 133 155 165 180 190 197 203 207 211 209 201 197 192 186 187 193 197 197 194 192 197 195 191 196 199 195 194 197 195 196
120 136 219 283 246 154 143 188 244 159 145 131 123 84 34 53 137 157 181 201 213 214 217 208 202 192 182 188 191 196 201 200 197 194 196 195 198 200 197 191 195 195 191 192
122 137 199 232 261 222 108 286 266 161 158 153 129 133 243 10 79 94 81 70 37 209 198 207 206 183 183 193 197 204 203 199 193 190 192 197 201 198 190 188 195 191 192 194
128 155 244 268 298 119 153 217 180 155 159 149 148 167 141 63 55 70 76 68 58 66 130 244 202 181 189 195 207 209 198 186 183 186 189 192 189 181 176 178 179 182 185 188
136 152 229 331 15 161 196 126 110 121 119 112 112 100 86 72 64 61 60 58 57 53 5 337 181 175 187 208 214 188 176 177 179 180 184 182 173 170 167 168 173 177 175 177
168 189 258 317 240 282 133 114 110 112 110 114 109 96 84 70 61 57 49 44 49 52 30 11 24 166 192 221 183 165 165 168 167 164 166 162 163 163 158 162 168 172 171 175
80 31 5 21 31 37 70 90 92 104 109 108 109 103 88 74 62 53 44 35 40 47 44 26 17 28 227 171 160 161 161 158 154 152 147 140 141 146 152 161 166 166 168 169
106 118 54 36 40 59 73 82 84 82 89 102 106 100 95 85 74 61 47 33 36 46 44 30 23 27 24 88 135 141 144 141 140 136 132 124 109 92 124 126 156 160 166 159
208 202 135 88 52 77 90 90 93 94 86 82 92 99 95 85 73 65 55 45 42 39 37 28 30 35 31 51 125 136 134 133 133 127 124 123 118 96 61 70 79 95 111 126
200 84 100 96 72 77 91 95 93 92 92 86 79 83 86 79 68 63 55 49 42 36 31 31 37 37 28 36 91 115 127 129 125 124 126 129 129 126 111 75 65 66 78 97
73 90 90 84 88 78 90 95 92 84 77 78 77 74 75 71 62 55 46 40 43 45 38 37 41 35 27 50 81 93 101 110 117 121 123 122 121 119 118 118 107 78 63 74
56 83 107 103 91 82 87 96 94 86 80 72 70 70 71 69 61 49 38 41 51 50 40 39 40 27 24 63 83 88 93 98 104 108 110 111 110 108 105 105 103 99 91 74
81 88 97 99 97 94 92 93 93 89 83 79 73 68 68 70 65 52 40 42 52 46 34 37 37 23 33 63 79 80 81 88 97 104 103 104 106 108 106 104 100 95 92 93
108 108 112 111 107 102 97 97 98 96 89 83 79 76 74 70 64 54 45 42 51 48 40 40 36 36 51 65 78 83 82 84 87 91 93 97 100 105 107 105 103 96 86 80
97 104 110 116 117 109 100 94 94 92 89 86 82 77 73 70 67 55 44 47 53 48 37 33 41 50 54 58 68 76 80 80 82 85 86 88 91 93 95 96 98 96 89 79
90 94 94 96 102 103 100 97 95 91 90 90 86 80 74 69 66 61 56 55 50 43 23 26 47 56 55 56 65 72 79 81 80 81 84 85 86 86 90 93 93 91 89 83
86 90 91 91 92 97 99 98 95 89 85 88 87 82 74 64 62 65 64 58 41 26 22 42 54 55 54 57 64 69 74 78 78 78 80 81 83 82 85 87 88 87 83 80
91 93 95 96 95 92 95 98 97 91 84 82 85 85 78 66 59 62 66 58 26 26 45 52 56 56 57 61 65 69 70 73 75 75 78 81 82 81 80 81 81 81 79 76
88 91 93 96 97 92 88 92 96 94 88 83 81 82 79 71 66 63 56 54 40 46 55 55 58 62 64 66 67 70 72 73 73 72 74 76 79 80 79 78 78 76 73 71
86 87 88 90 94 93 85 83 87 89 87 84 82 80 78 69 64 75 64 37 50 59 62 61 63 63 65 67 68 70 71 72 72 72 72 72 73 76 78 77 73 71 68 65
86 86 86 89 90 88 83 77 79 82 83 80 75 78 85 82 65 57 72 67 66 69 66 62 63 63 65 67 68 69 68 69 70 70 71 70 69 69 70 71 71 68 67 66
89 88 87 89 88 87 88 87 84 83 82 76 68 62 64 74 83 73 72 73 72 73 68 59 60 64 66 67 68 69 67 66 68 69 67 67 66 66 65 65 67 67 65 63
87 86 83 82 85 87 86 85 83 82 85 81 69 62 65 67 71 71 71 70 69 69 67 62 62 63 65 66 67 67 67 65 65 64 64 66 66 66 65 64 63 60 57 55
81 81 80 76 69 72 79 82 82 79 81 88 81 67 68 70 70 70 71 69 68 66 64 61 61 64 66 66 66 64 63 62 62 62 62 62 62 61 60 62 58 56 54 54